(332782) = 2009 VT47

Discovered at Mount Lemmon on 2009-11-09 by Mt. Lemmon Survey.

Orbit

Orbit type: Main Belt

Note: WebGL enabled browser required.

epoch2024-03-31.0
epoch JD2460400.5
perihelion date2021-11-20.74616
perihelion JD2459539.24616
argument of perihelion (°)213.42665
ascending node (°)135.24259
inclination (°)3.24741
eccentricity0.0924512
perihelion distance (AU)2.3755611
Tisserand w.r.t. Jupiter3.4
ΔV w.r.t. Earth (km/sec)9.7
semimajor axis (AU)2.6175575
mean anomaly (°)200.44290
mean daily motion (°/day)0.23273380
aphelion distance (AU)2.860
period (years)4.23
P-vector [x]0.97988649
P-vector [y]-0.16842352
P-vector [z]-0.10703258
Q-vector [x]0.19552894
Q-vector [y]0.91753258
Q-vector [z]0.34626926
absolute magnitude17.38
phase slope0.15
uncertainty0
referenceMPEC 2024-F62
observations used210
oppositions16
arc length (days)11445
first opposition used1992
last opposition used2024
residual rms (arc-secs)0.72
perturbers coarse indicatorM-v
perturbers precise indicator003Ek
first observation date used1992-11-18.0
last observation date used2024-03-20.0
computer nameMPCLINUX
JD of orbit computation2456670.660385
perihelion JD uncertainty (days)1.3905E-04
argument of perihelion uncertainty (°)1.3786E-04
ascending node uncertainty (°)1.3378E-04
inclination uncertainty (°)6.2362E-06
eccentricity uncertainty 7.7641E-08
perihelion distance uncertainty (AU)2.0311E-07
Minimum Orbit Intersection Distances (in AU)
for orbit epoch: 2460400.5, reference: E2024-GB3
Mercury1.98645
Venus1.64874
Earth1.36942
Mars0.9877
Jupiter2.48463
Saturn6.33739
Uranus15.5806
Neptune27.3357

Observations

214 total observations over interval: 1992 11 18.29340 – 2024 03 20.21345
These data are available for download (format description).

Date (UT) J2000 RA J2000 Dec Magn Location Ref
1992 11 18.29340 03 15 28.59 +12 35 07.9   691 – Steward Observatory, Kitt Peak-Spacewatch MPS 386571
1992 11 18.31944 03 15 27.11 +12 35 02.9   691 – Steward Observatory, Kitt Peak-Spacewatch MPS 386571
1992 11 18.34647 03 15 25.50 +12 34 58.2 20.6 V 691 – Steward Observatory, Kitt Peak-Spacewatch MPS 386571
1998 01 29.36532 09 00 09.02 +16 40 34.6 21.1 V 691 – Steward Observatory, Kitt Peak-Spacewatch MPS 386571
1998 01 29.38760 09 00 07.73 +16 40 41.7 21.3 V 691 – Steward Observatory, Kitt Peak-Spacewatch MPS 386571
1998 01 29.41401 09 00 06.20 +16 40 49.2 21.5 V 691 – Steward Observatory, Kitt Peak-Spacewatch MPS 386571
2000 09 28.16974 22 58 44.76 -09 59 42.4 21.2 V 691 – Steward Observatory, Kitt Peak-Spacewatch MPS 386571
2000 09 28.17365 22 58 44.63 -09 59 43.6 20.8 V 691 – Steward Observatory, Kitt Peak-Spacewatch MPS 386571
2000 09 28.17748 22 58 44.46 -09 59 44.7 20.9 V 691 – Steward Observatory, Kitt Peak-Spacewatch MPS 386571
2000 09 28.31630 22 58 39.03 -10 00 21.3 20.9 V 691 – Steward Observatory, Kitt Peak-Spacewatch MPS 386571
2000 09 28.32200 22 58 38.84 -10 00 22.8 21.2 V 691 – Steward Observatory, Kitt Peak-Spacewatch MPS 386571
2000 09 28.32581 22 58 38.65 -10 00 23.9 21.0 V 691 – Steward Observatory, Kitt Peak-Spacewatch MPS 386571
2007 03 10.29075 12 11 10.80 +02 23 06.2 21.6 V 691 – Steward Observatory, Kitt Peak-Spacewatch MPS 386571
2007 03 10.31185 12 11 09.78 +02 23 13.6 21.1 V 691 – Steward Observatory, Kitt Peak-Spacewatch MPS 386571
2007 03 10.33295 12 11 08.76 +02 23 21.6 21.4 V 691 – Steward Observatory, Kitt Peak-Spacewatch MPS 386571
2009 11 09.39956 04 00 12.45 +15 16 09.1 20.3 V G96 – Mt. Lemmon Survey MPS 303486
2009 11 09.40681 04 00 12.06 +15 16 08.4 20.4 V G96 – Mt. Lemmon Survey MPS 303486
2009 11 09.41404 04 00 11.66 +15 16 06.7 20.1 V G96 – Mt. Lemmon Survey MPS 303486
2009 11 09.42116 04 00 11.26 +15 16 05.4 20.5 V G96 – Mt. Lemmon Survey MPS 303486
2009 11 16.35875 03 53 40.12 +14 55 56.1 20.2 V G96 – Mt. Lemmon Survey MPS 303486
2009 11 16.36787 03 53 39.55 +14 55 54.5 20.0 V G96 – Mt. Lemmon Survey MPS 303486
2009 11 16.37691 03 53 39.04 +14 55 52.9 19.9 V G96 – Mt. Lemmon Survey MPS 303486
2009 11 16.38770 03 53 38.36 +14 55 50.7 20.1 V G96 – Mt. Lemmon Survey MPS 303486
2009 11 23.28243 03 46 56.31 +14 37 11.6 20.4 V G96 – Mt. Lemmon Survey MPS 312803
2009 11 23.28823 03 46 55.95 +14 37 10.7 20.1 V G96 – Mt. Lemmon Survey MPS 312803
2009 11 23.29409 03 46 55.63 +14 37 09.5 20.2 V G96 – Mt. Lemmon Survey MPS 312803
2009 11 23.29986 03 46 55.27 +14 37 08.9 20.2 V G96 – Mt. Lemmon Survey MPS 312803
2011 01 29.32998 11 04 51.01 +07 25 10.9 21.7 V 691 – Steward Observatory, Kitt Peak-Spacewatch MPS 386571
2011 01 29.35215 11 04 50.44 +07 25 17.0 21.0 V 691 – Steward Observatory, Kitt Peak-Spacewatch MPS 386571
2011 01 29.37437 11 04 49.73 +07 25 23.0 21.5 V 691 – Steward Observatory, Kitt Peak-Spacewatch MPS 386571
2011 02 26.27406 10 44 57.62 +10 02 03.5 20.4 V G96 – Mt. Lemmon Survey MPS 386571
2011 02 26.28153 10 44 57.22 +10 02 06.6 21.1 V G96 – Mt. Lemmon Survey MPS 386571
2011 02 26.28899 10 44 56.83 +10 02 09.1 20.6 V G96 – Mt. Lemmon Survey MPS 386571
2011 02 26.29647 10 44 56.43 +10 02 12.1 21.2 V G96 – Mt. Lemmon Survey MPS 386571
2011 03 10.98031 10 34 08.70 +11 17 41.6 21.0 R B67 – Sternwarte Mirasteilas, Falera MPS 386571
2011 03 10.98942 10 34 08.28 +11 17 45.9 21.0 R B67 – Sternwarte Mirasteilas, Falera MPS 386571
2012 06 16.25145 16 40 48.25 -17 39 48.0 20.7 V G96 – Mt. Lemmon Survey MPS 427327
2012 06 16.25774 16 40 47.89 -17 39 48.4 20.1 V G96 – Mt. Lemmon Survey MPS 427327
2012 06 16.26411 16 40 47.53 -17 39 47.6 21.0 V G96 – Mt. Lemmon Survey MPS 427327
2012 06 16.27050 16 40 47.17 -17 39 47.1 20.1 V G96 – Mt. Lemmon Survey MPS 427327
2012 06 18.27758 16 39 01.44 -17 38 40.5 20.9 V G96 – Mt. Lemmon Survey MPS 427327
2012 06 18.28279 16 39 01.11 -17 38 39.7 21.4 V G96 – Mt. Lemmon Survey MPS 427327
2012 06 18.28806 16 39 00.86 -17 38 39.7 21.2 V G96 – Mt. Lemmon Survey MPS 427327
2012 06 18.29332 16 39 00.50 -17 38 39.8 21.1 V G96 – Mt. Lemmon Survey MPS 427327
2013 10 03.41880 02 05 29.211 +07 25 28.21 20.7 w F51 – Pan-STARRS 1, Haleakala MPS 479970
2013 10 03.43413 02 05 28.553 +07 25 23.45 20.7 w F51 – Pan-STARRS 1, Haleakala MPS 479970
2013 10 03.44927 02 05 27.891 +07 25 18.77 20.7 w F51 – Pan-STARRS 1, Haleakala MPS 479970
2013 10 03.46451 02 05 27.213 +07 25 13.96 20.8 w F51 – Pan-STARRS 1, Haleakala MPS 479970
2013 10 24.20465 01 48 29.78 +05 33 10.8 19.9 V G96 – Mt. Lemmon Survey MPS 493319
2013 10 24.20885 01 48 29.55 +05 33 09.1 19.9 V G96 – Mt. Lemmon Survey MPS 493319
2013 10 24.21301 01 48 29.34 +05 33 08.0 19.8 V G96 – Mt. Lemmon Survey MPS 493319
2013 10 24.21718 01 48 29.07 +05 33 06.9 20.1 V G96 – Mt. Lemmon Survey MPS 493319
2013 10 24.22318 01 48 28.76 +05 33 05.2 19.9 V G96 – Mt. Lemmon Survey MPS 483536
2013 10 24.22902 01 48 28.45 +05 33 03.1 20.1 V G96 – Mt. Lemmon Survey MPS 483536
2013 10 24.23490 01 48 28.15 +05 33 01.5 20.0 V G96 – Mt. Lemmon Survey MPS 483536
2013 10 24.24075 01 48 27.81 +05 32 59.6 20.0 V G96 – Mt. Lemmon Survey MPS 483536
2013 10 25.25703 01 47 35.04 +05 27 52.0 20.0 V G96 – Mt. Lemmon Survey MPS 483536
2013 10 25.26246 01 47 34.75 +05 27 50.3 19.8 V G96 – Mt. Lemmon Survey MPS 483536
2013 10 25.26791 01 47 34.46 +05 27 49.1 19.8 V G96 – Mt. Lemmon Survey MPS 483536
2013 10 25.27336 01 47 34.16 +05 27 47.0 19.9 V G96 – Mt. Lemmon Survey MPS 483536
2013 10 26.23712 01 46 44.46 +05 23 00.1 20.0 V G96 – Mt. Lemmon Survey MPS 485150
2013 10 26.24366 01 46 44.10 +05 22 58.1 20.0 V G96 – Mt. Lemmon Survey MPS 485150
2013 10 26.25021 01 46 43.78 +05 22 56.5 20.1 V G96 – Mt. Lemmon Survey MPS 485150
2013 10 26.25676 01 46 43.41 +05 22 54.3 20.1 V G96 – Mt. Lemmon Survey MPS 485150
2015 01 22.55445 09 33 55.851 +14 23 59.47 21.6 w F51 – Pan-STARRS 1, Haleakala MPS 567108
2015 01 22.56677 09 33 55.238 +14 24 03.35 21.3 w F51 – Pan-STARRS 1, Haleakala MPS 567108
2015 01 22.57906 09 33 54.636 +14 24 06.81 21.3 w F51 – Pan-STARRS 1, Haleakala MPS 567108
2015 01 22.59138 09 33 54.027 +14 24 10.42 21.3 w F51 – Pan-STARRS 1, Haleakala MPS 567108
2015 03 17.35351 08 53 39.905 +18 17 26.08 21.9 w F51 – Pan-STARRS 1, Haleakala MPS 591951
2015 03 17.37857 08 53 39.433 +18 17 29.15 21.9 w F51 – Pan-STARRS 1, Haleakala MPS 591951
2015 03 17.39112 08 53 39.176 +18 17 30.81 22.0 w F51 – Pan-STARRS 1, Haleakala MPS 591951
2016 05 09.32271 15 10 16.65 -12 24 18.7 20.9 V G96 – Mt. Lemmon Survey MPS 709825
2016 05 09.32721 15 10 16.40 -12 24 18.3 21.1 V G96 – Mt. Lemmon Survey MPS 709825
2016 05 09.33171 15 10 16.11 -12 24 16.9 21.4 V G96 – Mt. Lemmon Survey MPS 709825
2016 05 09.33621 15 10 15.88 -12 24 15.9 21.0 V G96 – Mt. Lemmon Survey MPS 709825
2016 05 10.27261 15 09 25.17 -12 20 47.4 21.0 V 691 – Steward Observatory, Kitt Peak-Spacewatch MPS 709825
2016 05 10.28024 15 09 24.75 -12 20 46.3 21.0 V 691 – Steward Observatory, Kitt Peak-Spacewatch MPS 709825
2016 05 10.28779 15 09 24.35 -12 20 44.6 20.8 V 691 – Steward Observatory, Kitt Peak-Spacewatch MPS 709825
2016 06 29.28253 14 40 59.765 -11 11 07.44 22.1 w F51 – Pan-STARRS 1, Haleakala MPS 717347
2016 06 29.29493 14 40 59.735 -11 11 08.87 22.1 w F51 – Pan-STARRS 1, Haleakala MPS 717347
2016 06 29.31952 14 40 59.653 -11 11 11.28 22.1 w F51 – Pan-STARRS 1, Haleakala MPS 717347
2017 08 31.49964 23 57 15.482 -03 41 03.52 20.6 w F51 – Pan-STARRS 1, Haleakala MPS 814840
2017 08 31.51247 23 57 14.961 -03 41 08.29 20.6 w F51 – Pan-STARRS 1, Haleakala MPS 814840
2017 09 14.41661 23 47 02.288 -05 12 10.17 20.2 w F51 – Pan-STARRS 1, Haleakala MPS 816857
2017 09 14.42861 23 47 01.682 -05 12 14.96 20.3 w F51 – Pan-STARRS 1, Haleakala MPS 816857
2017 09 14.44053 23 47 01.078 -05 12 19.67 20.1 w F51 – Pan-STARRS 1, Haleakala MPS 816857
2017 09 14.45244 23 47 00.479 -05 12 24.44 20.2 w F51 – Pan-STARRS 1, Haleakala MPS 816857
2017 09 17.38348 23 44 38.922 -05 31 50.63 20.1 w F51 – Pan-STARRS 1, Haleakala MPS 818770
2017 09 17.39518 23 44 38.324 -05 31 55.28 20.0 w F51 – Pan-STARRS 1, Haleakala MPS 818770
2017 09 17.40690 23 44 37.725 -05 31 59.87 20.1 w F51 – Pan-STARRS 1, Haleakala MPS 818770
